N4NW Stafford County VA US current weather conditions

sailwx.info

Wind from 211 at 3 knots gusting 8

Air temperature 25.6° C
Dewpoint 21.6° C

Last reported at 2019-Aug-22 00:01 UTC.
Time now 2019-Aug-22 00:34 UTC

Location: N 38°28' W 077°28'.
View on Google Maps.

See reports from other nearby stations

  
Tides and Currents Weather Stations Pressure Air Temp Water Temp Dewpoint Dewpoint Depression Visibility Wind Speed Wind Dir Waves Ship Positions
date/time (UTC)wind fromknots sea level pressurealtimeterstation pressurevisibilityair tempwater tempwave heightnotes
2019-Aug-22 00:01 211 3 gusting 8 25.6
2019-Aug-21 23:59 190 3 gusting 9 26.1
2019-Aug-21 23:45 189 26.1
2019-Aug-21 23:31 189 0 gusting 4 26.7
2019-Aug-21 23:15 209 26.7
2019-Aug-21 23:02 209 27.2
2019-Aug-21 22:59 209 27.2
2019-Aug-21 22:45 224 1 gusting 5 27.8
2019-Aug-21 22:31 186 27.8
2019-Aug-21 22:15 212 0 gusting 6 28.3
2019-Aug-21 22:00 254 1 gusting 12 28.9
2019-Aug-21 21:59 254 1 gusting 15 28.9
2019-Aug-21 21:46 181 4 gusting 16 30.0
2019-Aug-21 21:30 239 3 gusting 6 29.4
2019-Aug-21 21:16 082 29.4
2019-Aug-21 21:00 082 30.0
2019-Aug-21 20:59 082 30.6
2019-Aug-21 20:46 082 0 gusting 3 31.1
2019-Aug-21 20:30 084 1 gusting 5 32.2
2019-Aug-21 20:16 211 33.9
2019-Aug-21 20:01 205 1 gusting 10 33.9
2019-Aug-21 20:00 230 0 gusting 12 33.9
2019-Aug-21 19:45 183 4 gusting 12 33.9
2019-Aug-21 19:32 238 0 gusting 6 33.9
2019-Aug-21 19:15 236 4 gusting 10 33.3
2019-Aug-21 19:01 275 3 gusting 6 32.8
2019-Aug-21 18:59 279 2 gusting 12 33.3
2019-Aug-21 18:45 246 4 gusting 8 33.3
2019-Aug-21 18:32 203 1 gusting 8 32.8
2019-Aug-21 18:15 236 4 gusting 9 32.2
2019-Aug-21 18:00 175 4 gusting 8 32.2
2019-Aug-21 17:59 200 7 gusting 12 32.2
2019-Aug-21 17:47 222 3 gusting 11 32.2
2019-Aug-21 17:30 198 1 gusting 11 32.2
2019-Aug-21 17:16 171 4 gusting 12 32.2
2019-Aug-21 17:00 205 4 gusting 9 32.2
2019-Aug-21 16:59 171 3 gusting 12 32.2
2019-Aug-21 16:46 219 5 gusting 10 31.7
2019-Aug-21 16:30 186 3 gusting 12 31.1
2019-Aug-21 16:18 192 1 gusting 8 31.1
2019-Aug-21 16:00 227 4 gusting 8 30.6
2019-Aug-21 15:59 206 8 gusting 12 31.1
2019-Aug-21 15:31 206 5 gusting 9 29.4
2019-Aug-21 15:01 202 1 gusting 10 27.8
2019-Aug-21 14:59 192 1 gusting 13 28.3
2019-Aug-21 14:30 205 5 gusting 13 27.2
2019-Aug-21 14:01 190 4 gusting 8 26.1
2019-Aug-21 13:59 246 3 gusting 9 26.1
2019-Aug-21 13:45 205 2 gusting 9 25.6
2019-Aug-21 13:31 243 3 gusting 9 25.0
2019-Aug-21 13:15 232 5 gusting 13 24.4
2019-Aug-21 13:03 215 5 gusting 13 23.9
2019-Aug-21 12:59 221 2 gusting 13 24.4
2019-Aug-21 12:45 226 1 gusting 6 23.3
2019-Aug-21 12:32 265 4 gusting 11 22.8
2019-Aug-21 12:16 219 2 gusting 9 22.8
2019-Aug-21 12:02 232 2 gusting 9 22.2
2019-Aug-21 11:59 234 6 gusting 9 22.2
2019-Aug-21 11:30 199 2 gusting 7 21.7
2019-Aug-21 11:01 205 3 gusting 8 21.1
2019-Aug-21 10:59 223 21.1
2019-Aug-21 10:45 227 1 gusting 6 20.6
2019-Aug-21 10:31 254 20.6
2019-Aug-21 10:15 267 0 gusting 5 20.0
2019-Aug-21 10:00 271 20.0
2019-Aug-21 09:59 271 20.6
2019-Aug-21 09:47 271 20.0
2019-Aug-21 09:30 271 20.0
2019-Aug-21 09:00 271 20.0
2019-Aug-21 08:59 271 20.0
2019-Aug-21 08:30 271 20.0
2019-Aug-21 08:01 272 20.0
2019-Aug-21 07:59 272 20.6
2019-Aug-21 07:45 272 20.0
2019-Aug-21 07:31 272 20.0
2019-Aug-21 07:15 272 20.0
2019-Aug-21 06:59 272 20.6
2019-Aug-21 06:45 272 20.6
2019-Aug-21 06:30 272 20.6
2019-Aug-21 06:15 272 20.6
2019-Aug-21 06:00 271 21.1
2019-Aug-21 05:59 271 21.1
2019-Aug-21 05:47 271 21.1
2019-Aug-21 05:30 268 21.1
2019-Aug-21 05:18 267 21.1
2019-Aug-21 05:01 267 0 gusting 7 21.1
2019-Aug-21 04:59 268 2 gusting 8 21.1
2019-Aug-21 04:46 234 2 gusting 6 21.1
2019-Aug-21 04:31 205 0 gusting 7 21.1
2019-Aug-21 04:16 211 1 gusting 6 21.1
2019-Aug-21 04:00 236 1 gusting 7 20.6
2019-Aug-21 03:59 236 4 gusting 10 21.1
2019-Aug-21 03:45 196 3 gusting 10 20.6
2019-Aug-21 03:31 219 3 gusting 9 20.6
2019-Aug-21 03:15 207 1 gusting 12 20.6
2019-Aug-21 02:59 219 0 gusting 14 21.1
2019-Aug-21 02:46 212 0 gusting 10 21.1
2019-Aug-21 02:32 196 2 gusting 8 21.1
2019-Aug-21 02:15 195 0 gusting 15 21.1
2019-Aug-21 02:00 210 2 gusting 6 21.1
2019-Aug-21 01:46 221 21.7
2019-Aug-21 01:30 229 21.7
2019-Aug-21 01:16 231 2 gusting 5 21.7
2019-Aug-21 01:00 101 21.7
2019-Aug-21 00:59 101 21.7
2019-Aug-21 00:47 101 21.7
2019-Aug-21 00:30 100 21.7
2019-Aug-21 00:15 100 22.2
2019-Aug-20 23:59 057 1 gusting 6 22.2
2019-Aug-20 23:46 046 1 gusting 6 22.2
2019-Aug-20 23:30 141 22.2
2019-Aug-20 23:01 355 1 gusting 8 25.0
2019-Aug-20 22:59 042 0 gusting 13 25.6
2019-Aug-20 22:45 055 6 gusting 16 26.7
2019-Aug-20 22:31 146 0 gusting 13 27.8
2019-Aug-20 22:15 220 1 gusting 6 29.4
2019-Aug-20 22:00 133 1 gusting 3 31.1
2019-Aug-20 21:59 133 1 gusting 6 31.7
2019-Aug-20 21:30 196 32.8
2019-Aug-20 21:01 226 0 gusting 4 33.9
2019-Aug-20 20:59 202 33.9
2019-Aug-20 20:31 201 0 gusting 3 35.6
2019-Aug-20 20:15 195 0 gusting 6 36.1
2019-Aug-20 20:00 157 0 gusting 5 35.6
2019-Aug-20 19:59 156 1 gusting 7 35.6
2019-Aug-20 19:46 182 3 gusting 6 35.0
2019-Aug-20 19:30 148 35.0
2019-Aug-20 19:17 080 1 gusting 6 35.0
2019-Aug-20 19:00 250 0 gusting 4 36.1
2019-Aug-20 18:59 250 1 gusting 5 36.1
2019-Aug-20 18:46 194 0 gusting 2 35.6
2019-Aug-20 18:30 142 0 gusting 3 35.6
2019-Aug-20 18:16 189 0 gusting 4 35.0
2019-Aug-20 18:00 213 0 gusting 5 35.0
2019-Aug-20 17:59 213 1 gusting 5 35.0
2019-Aug-20 17:31 186 0 gusting 3 34.4
2019-Aug-20 17:15 190 1 gusting 3 34.4
2019-Aug-20 17:01 131 0 gusting 5 34.4
2019-Aug-20 16:59 127 0 gusting 6 34.4
2019-Aug-20 16:45 112 33.3
2019-Aug-20 16:32 221 1 gusting 5 33.3
2019-Aug-20 16:15 034 0 gusting 4 32.8
2019-Aug-20 16:00 059 1 gusting 3 32.8
2019-Aug-20 15:59 062 1 gusting 6 32.8
2019-Aug-20 15:31 086 31.1
2019-Aug-20 15:01 305 29.4
2019-Aug-20 14:59 305 0 gusting 3 30.0
2019-Aug-20 14:31 289 28.3
2019-Aug-20 13:59 289 27.2
2019-Aug-20 13:46 289 26.1
2019-Aug-20 13:30 289 25.6
2019-Aug-20 13:16 274 24.4
2019-Aug-20 13:00 274 0 gusting 3 23.3
2019-Aug-20 12:59 230 23.9
2019-Aug-20 12:46 230 22.8
2019-Aug-20 12:30 230 22.8
2019-Aug-20 12:16 230 22.2
2019-Aug-20 12:00 230 22.2
2019-Aug-20 11:59 230 22.2
2019-Aug-20 11:45 230 21.7
2019-Aug-20 11:32 230 21.7
2019-Aug-20 11:15 230 21.7
2019-Aug-20 10:59 230 21.7
2019-Aug-20 10:46 230 21.7
2019-Aug-20 10:16 230 21.7
2019-Aug-20 10:00 230 21.7
2019-Aug-20 09:59 230 22.2
2019-Aug-20 09:32 230 21.7
2019-Aug-20 09:15 230 22.2
2019-Aug-20 09:01 228 22.2
2019-Aug-20 08:59 228 0 gusting 1 22.2
2019-Aug-20 08:45 228 22.2
2019-Aug-20 08:31 228 22.2
2019-Aug-20 08:15 228 22.2
2019-Aug-20 08:01 228 22.8
2019-Aug-20 07:59 228 22.8
2019-Aug-20 07:46 228 22.8
2019-Aug-20 07:32 228 22.8
2019-Aug-20 07:16 228 0 gusting 2 22.8
2019-Aug-20 06:59 232 23.3
2019-Aug-20 06:46 231 23.3
2019-Aug-20 06:30 231 23.3
2019-Aug-20 06:01 231 23.9
2019-Aug-20 05:59 231 23.9
2019-Aug-20 05:45 231 23.9
2019-Aug-20 05:31 231 23.9
2019-Aug-20 05:15 229 0 gusting 1 24.4
2019-Aug-20 04:59 229 1 gusting 2 24.4
2019-Aug-20 04:46 229 24.4
2019-Aug-20 04:30 229 24.4
2019-Aug-20 04:16 229 24.4
2019-Aug-20 04:01 229 25.0
2019-Aug-20 03:59 229 0 gusting 1 25.0
2019-Aug-20 03:45 229 25.0
2019-Aug-20 03:30 229 25.6
2019-Aug-20 03:01 229 0 gusting 2 25.6
2019-Aug-20 02:59 229 1 gusting 2 26.1
2019-Aug-20 02:45 217 26.1
2019-Aug-20 02:31 217 26.1
2019-Aug-20 02:15 217 26.7
2019-Aug-20 02:00 217 0 gusting 4 26.7
2019-Aug-20 01:59 217 0 gusting 4 26.7
2019-Aug-20 01:47 206 0 gusting 3 26.7
2019-Aug-20 01:30 206 0 gusting 6 26.7
2019-Aug-20 01:17 044 26.7
2019-Aug-20 01:00 042 26.7
2019-Aug-20 00:59 042 0 gusting 2 27.2
2019-Aug-20 00:46 042 26.7
2019-Aug-20 00:30 039 27.2
2019-Aug-20 00:15 039 27.2
2019-Aug-20 00:00 039 27.2